Location: Bailleul
(50.3375°N, 2.8513°E)
Time: 15:15:31
(UTC+00:00)

Cosmos 1184 Rocket - Pass Details

Date: 16 June 2021
Orbit: 399 x 413 km, 81.2° (Epoch: 04 August)

Event Time Altitude Azimuth Distance (km) Brightness Sun altitude
Exits shadow 22:37:07 20° 114° (ESE) 1,037 4.4 -14.6°
Maximum altitude 22:37:56 22° 92° (E) 976 4.4 -14.6°
Drops below altitude 10° 22:40:31 10° 40° (NE) 1,505 6.0 -14.7°
Sets 22:42:50 0° 24° (NNE) 2,373 7.4 -14.8°
